Regional Weather Roundup
Issued by NWS

Home | Current Version | Previous Version | Text Only | Print | Product List | Glossary On
Versions: 1 2 3 4 5 6 7 8 9 10 11 12 13 14 15 16 17 18 19 20 21 22 23 24 25 26 27 28 29 30 31 32 33 34 35 36 37 38 39 40 41 42 43 44 45 46 47 48 49 50
000
ASUS43 KLMK 031210
RWRKY
KENTUCKY REGIONAL WEATHER ROUNDUP
NATIONAL WEATHER SERVICE LOUISVILLE KY
800 AM EDT THU SEP 03 2015

NOTE "FAIR" INDICATES FEW OR NO CLOUDS BELOW 12,000 FEET
WITH NO SIGNIFICANT WEATHER AND/OR OBSTRUCTIONS TO VISIBILITY.

KYZ001>023-026-027-061>063-070>075-031300-
WESTERN AND SOUTH CENTRAL KENTUCKY

CITY           SKY/WX    TMP DP  RH WIND       PRES   REMARKS
PADUCAH        CLEAR     66  64  93 CALM      30.03R FOG
HENDERSON      CLEAR     66  63  88 CALM      30.02S
OWENSBORO      CLEAR     69  68  97 CALM      30.04R
HOPKINSVILLE   CLEAR     68  65  93 CALM      30.03R
BOWLING GREEN  CLEAR     68  66  93 CALM      30.04R FOG
GLASGOW        CLEAR     64  64 100 N3        30.05R FOG
$$

KYZ024-025-028>034-038-045-046-053-031300-
NORTH CENTRAL KENTUCKY

CITY           SKY/WX    TMP DP  RH WIND       PRES   REMARKS
LOUISVILLE/SDF PTCLDY    71  68  90 W3        30.04R FOG
LOUISVILLE/LOU CLEAR     71  68  90 NW3       30.05R FOG
FORT KNOX      PTCLDY    65  64  96 CALM      30.04R FOG
$$

KYZ035>037-039>044-047>052-055>060-089>105-031300-
NORTHEAST KENTUCKY

CITY           SKY/WX    TMP DP  RH WIND       PRES   REMARKS
LEXINGTON      CLEAR     68  65  90 CALM      30.07R FOG
COVINGTON      PTCLDY    68  67  96 CALM      30.05R
FRANKFORT      CLEAR     67  64  90 CALM      30.05R FOG
$$

KYZ054-064>069-076>088-106>120-031300-
SOUTHEAST KENTUCKY

CITY           SKY/WX    TMP DP  RH WIND       PRES   REMARKS
JACKSON        CLEAR     68  66  93 CALM      30.07R FOG
LONDON         FOG       65  62  90 CALM      30.08R VSB 1
SOMERSET       FOG       64  64 100 CALM      30.08R VSB<1/4
MIDDLESBORO    CLOUDY    65  65 100 CALM      30.09S FOG
MONTICELLO     PTSUNNY   66  66 100 CALM      30.09R FOG
$$



USA.gov is the U.S. government's official web portal to all federal, state and local government web resources and services.